Flag for Germany Weather past 2 weeks in Landshut, Bavaria, Germany

Now
46 °F

Partly sunny.


Feels Like: 40 °F
Forecast: 39 / 52 °F
Wind: 12 mph from West

Location: Muenchen Flughafen

Current Time: Mar 30, 2015 at 6:44:13 PM

Latest Report: Mar 30, 2015 at 6:00 PM


Visibility: 25 mi

Pressure: 29.80 "Hg

Humidity: 63%

Dew point: 34 °F

Location of LandshutLocation

Historic Weather in Landshut — Graph

°F

Landshut temperature yesterday

Maximum temperature yesterday: 55 °F (at 2:00 PM)
Minimum temperature yesterday: 44 °F (at 12:00 AM)
Average temperature yesterday: 50 °F

Past Weeks' High & Low Weather Summary

 TemperatureHumidityPressure
High64 °F (Mar 17, 3:00 PM)99% (Mar 24, 1:00 AM)30.33 "Hg (Mar 24, 1:00 AM)
Low23 °F (Mar 21, 6:00 AM)31% (Mar 20, 5:00 PM)29.53 "Hg (Mar 30, 4:00 AM)
Average44 °F71%30.04 "Hg
* Reported Mar 15 4:00 PM — Mar 30 5:00 PM, Landshut, Weather by CustomWeather, © 2015

Note: Actual official high and low records may vary slightly from our data, if they occured in-between our weather recording intervals... More about our weather records

Advertising

Landshut weather history for previous 24 hours

 ConditionsComfort  
Time TempWeatherWind HumidityBarometerVisibility
5:00 PM
Mon, Mar 30
44 °FPartly sunny.9 mph74%29.77 "Hg19 mi
4:00 PM48 °FOvercast.12 mph63%29.73 "Hg19 mi
3:00 PM46 °FPartly sunny.9 mph69%29.72 "Hg19 mi
2:00 PM43 °FOvercast.12 mph80%29.72 "Hg12 mi
1:00 PM44 °FOvercast.10 mph77%29.68 "Hg19 mi
12:00 PM41 °FLight rain. Overcast.9 mph81%29.68 "Hg16 mi
11:00 AM42 °FLight rain. Overcast.12 mph84%29.64 "Hg14 mi
10:00 AM45 °FLight rain. Overcast.9 mph85%29.59 "Hg11 mi
9:00 AM45 °FLight rain. Overcast.10 mph87%29.56 "Hg9 mi
8:00 AM46 °FLight rain. Overcast.12 mph88%29.55 "Hg9 mi
7:00 AM45 °FLight rain. Overcast.7 mph93%29.57 "Hg7 mi
6:00 AM45 °FRain. Overcast.6 mph90%29.57 "Hg7 mi
4:00 AM48 °FLight rain. Overcast.15 mph83%29.53 "Hg25 mi
3:00 AM49 °FLight rain. Overcast.20 mph79%29.54 "Hg25 mi
2:00 AM49 °FLight rain. Overcast.18 mph75%29.56 "Hg43 mi
1:00 AM49 °FOvercast.18 mph78%29.58 "Hg25 mi
12:00 AM50 °FLight rain. Overcast.17 mph80%29.59 "Hg19 mi
11:00 PM
Sun, Mar 29
51 °FLight rain. Overcast.17 mph75%29.60 "Hg25 mi
10:00 PM52 °FLight rain. Overcast.16 mph73%29.62 "Hg31 mi
9:00 PM51 °FOvercast.13 mph70%29.65 "Hg43 mi
8:00 PM51 °FOvercast.14 mph72%29.67 "Hg43 mi
7:00 PM50 °FLight rain. Overcast.15 mph74%29.70 "Hg37 mi
6:00 PM50 °FLight rain. Overcast.15 mph79%29.73 "Hg16 mi
Weather by CustomWeather, © 2015

See weather overviewHow to use our weather pages